Meath Environmental Platform

Observations

Time Sensor AQI SAQ Temp °C Hum % Pres Pa CO μg/m³ H₂S μg/m³ NO μg/m³ NO₂ μg/m³ O₃ μg/m³ SO₂ μg/m³ CO₂e PPM VOC PPM PM1 μg/m³ PM2.5 μg/m³ PM4 μg/m³ PM10 μg/m³ TPS µm
Wednesday 12 August 2026
07:13 Trim Patrick St 2 20.8 67 16,387 0.06 0 1.28 13.88 44.63 0 7.14 11.86 13.05
07:12 Trim Market St 2 21.3 65 57,167 0.14 0 1.16 11.4 52.61 0 3.56 5.77 9.5
07:12 Trim Patrick St 2 20.8 68 19,310 0.06 0 1.28 5.82 50.55 0 7.14 13.26 14.58
07:11 Trim Patrick St 2 20.8 68 22,201 0.05 0 1.35 7.26 46.2 0 7.14 12.56 13.81
07:10 Trim Market St 2 21.3 65 57,136 0.15 0 1.35 10.94 48.31 0 3.56 5.26 7.53
07:10 Trim Patrick St 2 20.7 68 24,767 0.06 0 1.4 8.97 42.88 0 8 13.3 14.63
07:09 Trim Patrick St 2 20.7 67 28,512 0.05 0 1.23 7.92 58.66 0 8 13.31 14.64
07:08 Trim Market St 2 21.2 65 57,101 0.17 0 1.39 22.16 44.38 0 2.85 5.26 8.19
07:08 Trim Patrick St 2 20.7 68 33,145 0.07 0 1.32 6.77 52.33 0 8 12.51 13.76
07:07 Trim Market St 2 21.2 65 57,086 0.16 0 1.25 11.88 49.89 0 2.14 4.76 8.19
07:07 Trim Patrick St 2 20.7 68 36,024 0.05 0 1.28 9.07 47.57 0 7.14 11.07 12.18
07:06 Trim Market St 2 21.2 65 57,064 0.16 0 1.18 10.19 64.9 0 3.56 5.74 10.15
07:06 Trim Patrick St 2 20.6 68 37,335 0.08 0 1.36 8.92 45.52 0 7.14 11.77 12.95
07:05 Trim Market St 2 21.2 66 57,035 0.15 0 1.14 9.51 66.32 0 4.28 7.21 10.14
07:05 Trim Patrick St 2 20.6 68 38,298 0.06 0 1.35 6.79 46.89 0 8.86 13.26 14.58
07:04 Trim Market St 2 21.2 66 57,012 0.17 0 1.16 11.65 57.85 0 4.99 7.2 10.14
07:04 Trim Patrick St 2 20.6 68 38,460 0.06 0 1.34 8.47 48.06 0 7.14 12.52 13.78
07:03 Trim Market St 2 21.1 66 56,988 0.17 0 1.18 11.86 61.98 0 5.7 6.7 9.48
07:03 Trim Patrick St 2 20.5 68 38,460 0.06 0 1.16 19.06 52.28 0 7.14 11.77 12.95
07:02 Trim Market St 2 21.1 66 56,963 0.17 0 1.19 10.65 53.59 0 2.85 4.23 6.88